カタログに戻る

FENGYUN 1C DEB

運用中SSO
NORAD 30472·DEBRIS·🇨🇳 China

打ち上げ May 10, 1999 から Taiyuan Satellite Launch Center

Loading…

次のパス (今後24時間)

TLE

最新Source: Space-Track

元期: Sep 14, 2026, 06:46 UTC

1 30472U 99025AGK 26257.28213402  .00005361  00000-0  11497-2 0  9994
2 30472  98.6609  13.7880 0033818 314.6990  75.3383 14.58738212 20471

AllMySatでFENGYUN 1C DEBをリアルタイム追跡

Download on the App Store